Cut Bank, MT

11:52 AM MST on November 15, 2019 (GMT -0700)
Cut Bank Municipal

Weather History for KCTB - September, 2019

Change the Weather History Date:

Saturday, September 21, 2019

  Actual Average Record
Temperature  
Mean Temperature 56 °F 52 °F  
Max Temperature 66 °F 66 °F 88 °F (1967)
Min Temperature 46 °F 38 °F 20 °F (1995)
Degree Days  
Heating Degree Days 9 13  
Month to date heating degree days 160 210  
Since 1 July heating degree days 333 404  
Cooling Degree Days 0 0  
Month to date cooling degree days 2 6  
Year to date cooling degree days 106 159  
Growing Degree Days 6 (Base 50)    
Moisture  
Dew Point 41 °F    
Average Humidity 66    
Maximum Humidity 93    
Minimum Humidity 34    
Precipitation  
Precipitation 0.04 in 0.04 in 1.53 in (1940)
Month to date precipitation 1.03 0.92  
Year to date precipitation 9.86 9.58  
Snow  
Snow - - - ()
Snow Depth 0.00 in    
Sea Level Pressure  
Sea Level Pressure 29.95 in    
Wind  
Wind Speed 10 mph ()    
Max Wind Speed 22 mph    
Max Gust Speed 27 mph    
Visibility 9.9 miles    
Events Rain    
T = Trace of Precipitation, MM = Missing Value Source: Averaged Metar Reports

Daily Weather History Graph

Daily Weather History Graph

Search for Another Location

Airport or City:

Astronomy

Sep. 21, 2019 Rise Set
Actual Time 7:14 AM MDT 7:29 PM MDT
Civil Twilight 6:43 AM MDT 8:01 PM MDT
Nautical Twilight 6:06 AM MDT 8:38 PM MDT
Astronomical Twilight 5:27 AM MDT 9:16 PM MDT
Moon 11:38 PM MDT (9/21) 2:56 PM MDT (9/21)
Length of Visible Light 13h 18m
Length of Day
12h 15m
Waning Gibbous, 54% of the Moon is Illuminated
Sep 21
Waning Gibbous
Sep 21
Last Quarter
Sep 28
New
Oct 5
First Quarter
Oct 13
Full

Hourly Weather History & Observations

Time (MDT) Temp. Windchill Dew Point Humidity Pressure Visibility Wind Dir Wind Speed Gust Speed Precip Events Conditions
12:56 AM 48.9 °F - 44.1 °F 83% 29.96 in 10.0 mi NNW 17.3 mph - N/A   Overcast
1:56 AM 48.0 °F - 42.1 °F 80% 29.98 in 10.0 mi NNW 13.8 mph - N/A   Overcast
2:56 AM 46.9 °F - 43.0 °F 86% 29.98 in 7.0 mi NW 16.1 mph - 0.02 in Rain Light Rain
3:56 AM 46.0 °F 42.5 °F 43.0 °F 89% 29.99 in 10.0 mi NW 6.9 mph - 0.02 in   Overcast
4:56 AM 46.0 °F 43.1 °F 43.0 °F 89% 30.00 in 10.0 mi West 5.8 mph - N/A   Overcast
5:56 AM 46.9 °F - 44.1 °F 90% 30.00 in 10.0 mi West 5.8 mph - N/A   Overcast
6:56 AM 46.9 °F - 45.0 °F 93% 30.01 in 10.0 mi Calm Calm - N/A   Overcast
7:56 AM 46.0 °F 43.1 °F 44.1 °F 93% 30.02 in 10.0 mi WSW 5.8 mph - N/A   Scattered Clouds
8:56 AM 48.0 °F - 44.1 °F 86% 30.02 in 10.0 mi WSW 5.8 mph - N/A   Partly Cloudy
9:56 AM 53.1 °F - 43.0 °F 69% 30.00 in 10.0 mi SSW 6.9 mph - N/A   Clear
10:56 AM 55.9 °F - 43.0 °F 62% 29.98 in 10.0 mi SW 8.1 mph - N/A   Clear
11:56 AM 60.1 °F - 42.1 °F 51% 29.95 in 10.0 mi WSW 10.4 mph 18.4 mph N/A   Clear
12:56 PM 60.1 °F - 39.0 °F 46% 29.93 in 10.0 mi WNW 10.4 mph - N/A   Overcast
1:56 PM 63.0 °F - 37.9 °F 40% 29.91 in 10.0 mi WSW 15.0 mph - N/A   Scattered Clouds
2:56 PM 64.0 °F - 39.0 °F 40% 29.90 in 10.0 mi West 15.0 mph - N/A   Clear
3:56 PM 64.9 °F - 36.0 °F 34% 29.88 in 10.0 mi SSW 8.1 mph - N/A   Mostly Cloudy
4:56 PM 61.0 °F - 37.0 °F 41% 29.89 in 10.0 mi WSW 17.3 mph - N/A   Mostly Cloudy
5:56 PM 60.1 °F - 37.9 °F 44% 29.90 in 10.0 mi WSW 16.1 mph - N/A   Scattered Clouds
6:56 PM 57.0 °F - 39.0 °F 51% 29.90 in 10.0 mi WSW 12.7 mph - N/A   Mostly Cloudy
7:56 PM 53.1 °F - 39.0 °F 59% 29.91 in 10.0 mi WSW 10.4 mph - N/A   Overcast
8:56 PM 48.9 °F - 37.9 °F 66% 29.92 in 10.0 mi WSW 10.4 mph - N/A   Clear
9:56 PM 48.9 °F - 39.0 °F 69% 29.91 in 10.0 mi WSW 10.4 mph - N/A   Clear
10:56 PM 50.0 °F - 39.9 °F 68% 29.89 in 10.0 mi WSW 12.7 mph - N/A   Clear
11:56 PM 51.1 °F - 39.9 °F 66% 29.87 in 10.0 mi WSW 12.7 mph - N/A   Clear